Location: El Carrer d�Abaix
(41.5797°N, 2.1791°E)
Time: 04:23:39
(UTC+00:00)

STARLINK-1270 - Pass Details

Date: 06 June 2020
Orbit: 549 x 550 km, 53.0° (Epoch: 04 July)

Event Time Altitude Azimuth Distance (km) Brightness Sun altitude
Rises 21:31:22 0° 306° (NW) 2,721 8.5 -18.1°
Reaches altitude 10° 21:33:37 10° 306° (NW) 1,825 7.3 -18.3°
Maximum altitude 21:37:45 78° 220° (SW) 565 3.5 -18.7°
Enters shadow 21:38:48 49° 144° (SE) 716 3.7 -18.8°
